This is the latest recevied weather packets stored in our database for station/object G4KVI. If no packets are shown the sender has not sent any weather packets the latest 10 day(s).
| Time | Temp. | Humidity | Pressure | Rain* | Wind** | Luminosity | Snow |
|---|---|---|---|---|---|---|---|
| 1777374904 | 10.56° C | 73% | 1027.3 hPa | 0 mm | - | 158 W/m² | - |
| 1777374604 | 10.56° C | 74% | 1027.3 hPa | 0 mm | - | 123 W/m² | - |
| 1777374304 | 10.56° C | 74% | 1027.4 hPa | 0 mm | - | 109 W/m² | - |
| 1777374004 | 10.56° C | 75% | 1027.2 hPa | 0 mm | - | 147 W/m² | - |
| 1777373704 | 10.56° C | 74% | 1027.4 hPa | 0 mm | - | 116 W/m² | - |
| 1777373404 | 10.56° C | 74% | 1027.5 hPa | 0 mm | - | 113 W/m² | - |
| 1777373104 | 10.56° C | 74% | 1027.4 hPa | 0 mm | - | 83 W/m² | - |
| 1777372804 | 10.56° C | 73% | 1027.2 hPa | 0 mm | - | 112 W/m² | - |
| 1777372504 | 10.56° C | 73% | 1027.3 hPa | 0 mm | - | 142 W/m² | - |
| 1777372204 | 10.56° C | 73% | 1027.3 hPa | 0 mm | - | 344 W/m² | - |
| 1777371904 | 10.56° C | 74% | 1027.3 hPa | 0 mm | - | 217 W/m² | - |
| 1777371604 | 10° C | 74% | 1027.3 hPa | 0 mm | - | 152 W/m² | - |
| 1777371304 | 10° C | 75% | 1027.2 hPa | 0 mm | - | 146 W/m² | - |
| 1777371004 | 10° C | 75% | 1027.4 hPa | 0 mm | - | 134 W/m² | - |
| 1777370704 | 10° C | 75% | 1027.4 hPa | 0 mm | - | 98 W/m² | - |
| 1777370404 | 10° C | 75% | 1027 hPa | 0 mm | - | 146 W/m² | - |
| 1777370104 | 10° C | 75% | 1027.4 hPa | 0 mm | - | 155 W/m² | - |
| 1777369804 | 10° C | 75% | 1027.2 hPa | 0 mm | - | 134 W/m² | - |
| 1777369504 | 10° C | 75% | 1027.2 hPa | 0 mm | - | 129 W/m² | - |
| 1777369204 | 10° C | 74% | 1027.1 hPa | 0 mm | - | 95 W/m² | - |
| 1777368904 | 10° C | 74% | 1027.2 hPa | 0 mm | - | 105 W/m² | - |
| 1777368604 | 10° C | 74% | 1027.1 hPa | 0 mm | - | 104 W/m² | - |
| 1777368304 | 10° C | 73% | 1027.3 hPa | 0 mm | - | 85 W/m² | - |
| 1777368004 | 10° C | 73% | 1026.9 hPa | 0 mm | - | 92 W/m² | - |
| 1777367704 | 10° C | 72% | 1027 hPa | 0 mm | - | 106 W/m² | - |
* Rain latest hour (hover to see other rain measurements)
** Current wind speed in m/s (hover to see current wind gust speed)